Weather History for Chattanooga, TN

Change the Weather History Date:

Monday, March 25, 2013

  Actual Average Record
Temperature  
Mean Temperature 38 °F 55 °F  
Max Temperature 41 °F 67 °F 88 °F (2007)
Min Temperature 34 °F 43 °F 25 °F (1940)
Degree Days  
Heating Degree Days 27 11  
Month to date heating degree days 448 345  
Since 1 July heating degree days 2764 2967  
Cooling Degree Days 0 0  
Month to date cooling degree days 3 0  
Year to date cooling degree days 5 0  
Moisture  
Dew Point 24 °F    
Average Humidity 62    
Maximum Humidity 70    
Minimum Humidity 54    
Precipitation  
Precipitation T in 0.17 in 2.28 in (1964)
Month to date precipitation 3.68 4.02  
Year to date precipitation 17.36 13.77  
Snow  
Snow 0.00 in 0.00 in - ()
Month to date snowfall T 1.1  
Since 1 July snowfall 0.3 3.7  
Snow Depth 0.00 in    
Sea Level Pressure  
Sea Level Pressure 29.91 in    
Wind  
Wind Speed 12 mph (West)    
Max Wind Speed 23 mph    
Max Gust Speed 36 mph    
Visibility 9 miles    
Events Snow    
T = Trace of Precipitation, MM = Missing Value Source: NWS Daily Summary

Daily Weather History Graph

Daily Weather History Graph

Search for Another Location

Airport:

Trip Planner

Search our weather history database for the weather conditions in past years. The results will help you decide how hot, cold, wet, or windy it might be!

Date:

Astronomy

Mar. 25, 2013 Rise Set
Actual Time 7:37 AM EDT 7:56 PM EDT
Civil Twilight 7:11 AM EDT 8:22 PM EDT
Nautical Twilight 6:42 AM EDT 8:51 PM EDT
Astronomical Twilight 6:12 AM EDT 9:22 PM EDT
Moon 6:29 PM EDT 6:16 AM EDT
Length of Visible Light 13h 10m
Length of Day
12h 19m
Waxing Gibbous, 96% of the Moon is Illuminated
Mar 25
Waxing Gibbous
Mar 27
Full
Apr 3
Last Quarter
Apr 10
New
Apr 18
First Quarter

Hourly Weather History & Observations

Time (EDT) Temp. Windchill Dew Point Humidity Pressure Visibility Wind Dir Wind Speed Gust Speed Precip Events Conditions
12:53 AM 41.0 °F 33.5 °F 27.0 °F 57% 29.73 in 10.0 mi West 13.8 mph 23.0 mph N/A   Overcast
1:53 AM 39.9 °F 32.5 °F 24.1 °F 53% 29.75 in 10.0 mi West 12.7 mph 31.1 mph N/A   Overcast
2:53 AM 39.0 °F 30.6 °F 24.1 °F 55% 29.76 in 10.0 mi West 15.0 mph 28.8 mph N/A   Overcast
3:53 AM 37.9 °F 28.5 °F 25.0 °F 60% 29.76 in 10.0 mi West 17.3 mph 25.3 mph N/A   Overcast
4:53 AM 37.9 °F 32.7 °F 23.0 °F 55% 29.77 in 10.0 mi WSW 6.9 mph 24.2 mph N/A   Overcast
5:53 AM 37.0 °F 27.7 °F 23.0 °F 57% 29.78 in 9.0 mi West 16.1 mph 24.2 mph 0.00 in Snow Light Snow
6:53 AM 36.0 °F 29.6 °F 24.1 °F 62% 29.80 in 7.0 mi West 8.1 mph 21.9 mph 0.00 in Snow Light Snow
7:53 AM 36.0 °F 29.0 °F 24.1 °F 62% 29.82 in 7.0 mi West 9.2 mph 20.7 mph 0.00 in Snow Light Snow
8:53 AM 36.0 °F 29.6 °F 25.0 °F 64% 29.84 in 7.0 mi WSW 8.1 mph 19.6 mph 0.00 in Snow Light Snow
9:53 AM 36.0 °F 26.0 °F 25.0 °F 64% 29.87 in 7.0 mi West 17.3 mph 23.0 mph 0.00 in Snow Light Snow
10:53 AM 37.9 °F 28.2 °F 25.0 °F 60% 29.90 in 9.0 mi West 18.4 mph 27.6 mph 0.00 in Snow Light Snow
11:53 AM 37.0 °F 29.3 °F 24.1 °F 59% 29.92 in 9.0 mi West 11.5 mph 27.6 mph 0.00 in Snow Light Snow
12:53 PM 37.0 °F 27.4 °F 23.0 °F 57% 29.94 in 9.0 mi West 17.3 mph 26.5 mph 0.00 in Snow Light Snow
1:53 PM 37.9 °F 28.9 °F 24.1 °F 57% 29.95 in 9.0 mi West 16.1 mph 25.3 mph 0.00 in   Overcast
2:53 PM 37.9 °F 31.5 °F 23.0 °F 55% 29.95 in 10.0 mi WNW 9.2 mph 25.3 mph N/A   Overcast
3:53 PM 37.9 °F 28.9 °F 23.0 °F 55% 29.96 in 10.0 mi WNW 16.1 mph 23.0 mph 0.00 in Snow Light Snow
4:53 PM 37.0 °F 28.5 °F 23.0 °F 57% 29.99 in 10.0 mi West 13.8 mph 24.2 mph 0.00 in Snow Light Snow
5:53 PM 37.0 °F 27.7 °F 23.0 °F 57% 30.01 in 10.0 mi West 16.1 mph 20.7 mph 0.00 in Snow Light Snow
6:53 PM 37.0 °F 28.5 °F 24.1 °F 59% 30.03 in 10.0 mi West 13.8 mph - 0.00 in Snow Light Snow
7:53 PM 36.0 °F 29.0 °F 25.0 °F 64% 30.06 in 6.0 mi West 9.2 mph - 0.00 in Snow Light Snow
8:53 PM 35.1 °F 29.3 °F 27.0 °F 72% 30.08 in 8.0 mi West 6.9 mph - 0.00 in Snow Light Snow
9:53 PM 35.1 °F 26.9 °F 25.0 °F 67% 30.09 in 10.0 mi West 11.5 mph - 0.00 in Snow Light Snow
10:53 PM 35.1 °F 27.9 °F 26.1 °F 70% 30.10 in 9.0 mi West 9.2 mph - 0.00 in Snow Light Snow
11:53 PM 35.1 °F 29.3 °F 26.1 °F 70% 30.11 in 9.0 mi West 6.9 mph - 0.00 in Snow Light Snow